[[{"header":{"parameterUnit":"m.s-1","parameterCategory":1,"la1":30.2991,"la2":30.254,"lo1":-89.0895,"lo2":-89.0444,"dy":0.0017,"dx":0.0017,"nx":28,"ny":28,"refTime":"2024-12-17T03:00:00:Z","depth":0,"parameterNumber":2,"parameterNumberName":"U-component_of_WINDS"},"data":[0,0,0,0,0,0,0,0,0,0,0,0,0,0,0,0,0,0,0,0,0,0,0,0,0,0,0,0,0,0,0,0,0,0,0,0,0,0,0,0,0,0,0,0,0,0,0,0,0,0,0,0,0,0,0,0,0,0,3.0394,3.0394,0,3.0408,3.0408,3.0408,3.0351,3.035,3.0348,3.0347,3.0363,3.0365,3.0367,0,0,0,0,0,0,0,0,0,0,0,0,0,3.0322,3.0324,3.0394,3.0394,3.0394,3.0408,3.0408,3.0408,3.0352,3.035,3.0348,3.0346,3.0362,3.0365,3.0367,0,0,0,0,0,0,0,0,0,0,0,0,0,3.0347,3.0325,3.0394,3.0368,3.0366,3.0408,3.0408,3.0408,3.0352,3.035,3.0347,3.0345,3.0362,3.0365,3.0367,3.0436,0,0,3.0377,3.0378,0,0,0,0,0,0,0,0,3.0345,3.0349,3.0372,3.037,3.0367,3.0375,3.0388,3.0417,3.0353,3.0357,3.0346,3.0344,3.0369,3.0372,3.038,3.0437,3.0437,3.0377,3.0379,3.038,3.0381,0,0,0,0,0,0,0,3.0344,3.0348,3.0399,3.0372,3.0369,3.0356,3.0357,3.0394,3.0377,3.0357,3.0353,3.0355,3.0368,3.0377,3.038,3.0438,3.0377,3.0379,3.0381,3.0382,3.0553,3.0556,0,0,0,0,0,0,3.0345,3.0347,3.0399,3.04,3.035,3.036,3.036,3.0375,3.0377,3.0374,3.0357,3.0352,3.0373,3.0376,3.038,3.0462,3.038,3.0383,3.0384,3.0551,3.0554,3.0557,0,0,0,0,0,0,3.0344,3.035,3.0398,3.0373,3.0378,3.0364,3.0381,3.0377,3.0386,3.0377,3.0374,3.0369,3.0371,3.0376,3.0423,3.0461,3.0384,3.0387,3.0547,3.0552,3.0555,3.0625,0,0,0,0,0,0,3.0342,3.035,3.0375,3.0373,3.0379,3.044,3.0383,3.0379,3.0391,3.0385,3.0388,3.0386,3.037,3.0418,3.0426,3.0464,3.0389,3.0544,3.0549,3.0554,3.0619,3.0631,3.0641,0,0,0,0,0,3.034,3.0395,3.0377,3.0383,3.041,3.0443,3.0446,3.0426,3.0394,3.042,3.0414,3.0386,3.0455,3.0424,3.0431,3.0471,3.0541,3.0548,3.0554,3.0614,3.0629,3.0641,0,0,0,0,0,0,3.0402,3.0394,3.0374,3.043,3.0437,3.0433,3.0465,3.0441,3.0458,3.0452,3.0426,3.0428,3.048,3.048,3.0444,3.0538,3.0493,3.0501,3.0537,3.055,3.0561,3.0561,3.0392,0,0,0,0,0,3.0422,3.0448,3.044,3.049,3.0495,3.0479,3.0493,3.0476,3.0483,3.0486,3.0484,3.0493,3.0517,3.0533,3.0554,3.0618,3.0619,3.0649,3.066,3.0669,3.0677,3.0713,3.0727,3.0577,3.0577,3.0577,0,0,3.0465,3.0463,3.0481,3.0503,3.0506,3.0535,3.0482,3.0515,3.0536,3.0491,3.0536,3.0534,3.0542,3.0599,3.0623,3.06,3.0718,3.0677,3.0684,3.0687,3.072,3.0735,3.0747,3.0581,3.0581,3.058,0,0,3.0557,3.0557,3.06,3.0605,3.0611,3.0601,3.0611,3.061,3.0607,3.0651,3.0619,3.0644,3.0685,3.0693,3.0702,3.0797,3.0772,3.0805,3.0863,3.0898,3.0909,3.092,3.0956,3.0968,3.0812,3.0813,3.0813,0,3.0609,3.065,3.0625,3.066,3.0671,3.0631,3.0675,3.0681,3.0694,3.0703,3.0677,3.0729,3.0731,3.0789,3.0813,3.0821,3.0833,3.0806,3.0909,3.092,3.0929,3.0963,3.0976,3.0817,3.0816,3.0816,3.0815,0,3.0715,3.0744,3.0778,3.0791,3.0806,3.0845,3.0827,3.0845,3.0827,3.082,3.0866,3.0867,3.0889,3.0901,3.0884,3.0957,3.0943,3.0913,3.0868,3.0948,3.0979,3.0992,3.0823,3.0821,3.082,3.0819,0,0,3.0848,3.0847,3.086,3.0866,3.087,3.0893,3.093,3.0951,3.0968,3.0978,3.101,3.1046,3.1019,3.103,3.1013,3.1043,3.1121,3.101,3.101,3.1032,3.1204,3.1227,3.1242,3.1103,3.1106,3.1107,3.1203,0,3.094,3.1004,3.0983,3.1048,3.1076,3.1038,3.1071,3.1078,3.1072,3.1095,3.1088,3.1115,3.1076,3.1083,3.1111,3.1106,3.1155,3.1098,3.1135,3.1136,3.1136,3.1259,3.1283,3.1374,3.1215,3.1217,3.1219,0,3.1056,3.1071,3.1139,3.1139,3.115,3.118,3.1198,3.122,3.1227,3.122,3.1232,3.1209,3.1248,3.12,3.1254,3.1215,3.1229,3.1229,3.1232,3.1236,3.1184,3.1268,3.1402,3.1417,3.1238,3.1236,3.1235,0,3.1149,3.1186,3.1232,3.1238,3.1238,3.1261,3.1262,3.1267,3.1281,3.1296,3.1305,3.1325,3.1336,3.1353,3.1336,3.1303,3.1393,3.1344,3.139,3.1391,3.1412,3.1412,3.1553,3.1418,3.1418,3.1417,3.1417,0,3.1255,3.1299,3.1273,3.1302,3.135,3.1326,3.1375,3.1372,3.1376,3.1404,3.1372,3.1399,3.1375,3.14,3.1387,3.1435,3.1439,3.1436,3.1433,3.1441,3.1441,3.1451,3.1445,3.1421,3.142,3.1419,3.1419,0,3.1368,3.1352,3.14,3.1397,3.1397,3.1433,3.143,3.1457,3.1448,3.1485,3.1492,3.1479,3.1507,3.1491,3.152,3.1512,3.1573,3.156,3.1571,3.1569,3.1616,3.1613,3.177,3.179,3.1641,3.1642,3.1643,0,3.1437,3.147,3.147,3.1487,3.149,3.1517,3.1531,3.1508,3.1524,3.1535,3.1561,3.1586,3.1605,3.1652,3.1646,3.1668,3.1656,3.171,3.166,3.1667,3.166,3.1659,3.1663,3.1721,3.1723,3.1724,3.1725,0,3.1563,3.1554,3.1575,3.1595,3.1612,3.1626,3.1637,3.1652,3.163,3.165,3.1678,3.1693,3.1722,3.1748,3.1767,3.177,3.1745,3.1741,3.1753,3.1762,3.1768,3.1767,3.1601,3.1738,3.1736,3.1735,3.1735,3.1734,3.1658,3.1686,3.1691,3.1716,3.1722,3.1733,3.1759,3.1753,3.1776,3.1798,3.1783,3.1817,3.1823,3.1846,3.1852,3.1879,3.1857,3.1875,3.1879,3.1885,3.1892,3.1762,3.1882,3.1881,3.1881,3.1881,3.188,0,3.1784,3.1786,3.1809,3.1825,3.1845,3.1818,3.1829,3.1848,3.1878,3.1886,3.1906,3.1939,3.1964,3.1959,3.1982,3.2004,3.1994,3.2011,3.2011,3.2012,3.1909,3.1897,3.202,3.202,3.202,3.202,3.202,3.202,3.1853,3.1899,3.1891,3.194,3.1941,3.1973,3.1982,3.1993,3.1999,3.2037,3.2058,3.2054,3.2058,3.2081,3.2103,3.2101,3.2112,3.2134,3.2129,3.2033,3.2019,3.2006,3.1995,3.2136,3.2137,3.223,3.2231,3.2231]},{"header":{"parameterUnit":"m.s-1","parameterCategory":1,"la1":30.2991,"la2":30.254,"lo1":-89.0895,"lo2":-89.0444,"dy":0.0017,"dx":0.0017,"nx":28,"ny":28,"refTime":"2024-12-17T03:00:00:Z","depth":0,"parameterNumber":3,"parameterNumberName":"V-component_of_WINDS"},"data":[0,0,0,0,0,0,0,0,0,0,0,0,0,0,0,0,0,0,0,0,0,0,0,0,0,0,0,0,0,0,0,0,0,0,0,0,0,0,0,0,0,0,0,0,0,0,0,0,0,0,0,0,0,0,0,0,0,0,0.736,0.7362,0,0.7459,0.746,0.7461,0.7458,0.7456,0.7455,0.7454,0.7552,0.7556,0.756,0,0,0,0,0,0,0,0,0,0,0,0,0,0.7165,0.7169,0.736,0.7362,0.7363,0.7459,0.746,0.7462,0.7458,0.7456,0.7455,0.7453,0.7551,0.7556,0.756,0,0,0,0,0,0,0,0,0,0,0,0,0,0.7255,0.717,0.736,0.7373,0.7375,0.7459,0.746,0.7462,0.7458,0.7456,0.7454,0.7452,0.755,0.7555,0.7561,0.7638,0,0,0.7579,0.7582,0,0,0,0,0,0,0,0,0.725,0.7262,0.737,0.7372,0.7374,0.7444,0.7428,0.7521,0.7459,0.7427,0.7454,0.7451,0.7518,0.7526,0.7549,0.7643,0.7647,0.758,0.7583,0.7586,0.7587,0,0,0,0,0,0,0,0.7244,0.7258,0.7399,0.7371,0.7374,0.7372,0.7383,0.7445,0.7482,0.7429,0.7429,0.7441,0.7519,0.7544,0.7551,0.7649,0.7579,0.7585,0.7588,0.759,0.7807,0.781,0,0,0,0,0,0,0.7235,0.7253,0.7396,0.7402,0.7306,0.7377,0.7389,0.7424,0.7482,0.7489,0.7443,0.7441,0.7535,0.7545,0.7555,0.7647,0.7586,0.7591,0.7594,0.7805,0.7808,0.781,0,0,0,0,0,0,0.7231,0.7248,0.7392,0.7328,0.7346,0.7383,0.7422,0.7427,0.7452,0.7492,0.7498,0.7461,0.7533,0.7547,0.7617,0.765,0.7594,0.7599,0.7803,0.7806,0.7809,0.7833,0,0,0,0,0,0,0.7226,0.7247,0.7278,0.7328,0.7349,0.7454,0.7424,0.743,0.7462,0.746,0.7511,0.7518,0.7533,0.7608,0.7623,0.7657,0.7604,0.78,0.7804,0.7808,0.7829,0.7837,0.7843,0,0,0,0,0,0.7219,0.7281,0.7279,0.7296,0.7389,0.7456,0.7468,0.7485,0.7465,0.7495,0.7521,0.7516,0.7645,0.7616,0.7632,0.7669,0.7798,0.7803,0.7808,0.7826,0.7835,0.7843,0,0,0,0,0,0,0.7232,0.7287,0.7287,0.7367,0.7407,0.7455,0.7494,0.7494,0.754,0.7536,0.7554,0.7566,0.7636,0.7659,0.7626,0.7745,0.7718,0.7727,0.7727,0.7736,0.7742,0.7735,0.7608,0,0,0,0,0,0.7245,0.7296,0.7341,0.7407,0.7427,0.7457,0.7487,0.7497,0.7538,0.7555,0.7586,0.7626,0.7675,0.7707,0.7754,0.7833,0.7842,0.7866,0.7873,0.7878,0.7885,0.7925,0.7935,0.7827,0.7827,0.7827,0,0,0.7271,0.7307,0.7338,0.7411,0.7443,0.7494,0.7472,0.7527,0.7564,0.7563,0.7631,0.7655,0.77,0.7774,0.7809,0.7796,0.7917,0.7885,0.7889,0.7893,0.7932,0.7942,0.7951,0.783,0.783,0.7829,0,0,0.7344,0.7378,0.7435,0.7468,0.7516,0.7536,0.7549,0.7598,0.7613,0.7682,0.7681,0.7726,0.7811,0.7842,0.7869,0.7952,0.7948,0.7967,0.8002,0.8041,0.805,0.8057,0.8084,0.8094,0.7974,0.7974,0.7974,0,0.737,0.7447,0.7465,0.752,0.7551,0.7553,0.761,0.764,0.7702,0.7722,0.7708,0.7813,0.7844,0.7924,0.7943,0.7966,0.7981,0.7961,0.8047,0.8055,0.8063,0.8088,0.8099,0.7976,0.7975,0.7975,0.7975,0,0.7476,0.7529,0.757,0.7629,0.7665,0.7721,0.7745,0.7779,0.7784,0.7805,0.7873,0.791,0.7964,0.7984,0.799,0.8064,0.8054,0.8044,0.8017,0.8074,0.8099,0.8109,0.7978,0.7977,0.7977,0.7977,0,0,0.756,0.7627,0.7642,0.7667,0.772,0.7762,0.7817,0.787,0.7897,0.7939,0.7984,0.8055,0.8044,0.8075,0.8085,0.812,0.8179,0.8104,0.8106,0.8115,0.826,0.8266,0.8278,0.8178,0.818,0.8182,0.8255,0,0.7637,0.7736,0.7752,0.7838,0.7886,0.7887,0.7935,0.7971,0.7991,0.8034,0.8056,0.8105,0.8089,0.8107,0.8141,0.8165,0.8208,0.816,0.8218,0.822,0.8205,0.8291,0.8299,0.8366,0.8265,0.8267,0.8268,0,0.774,0.7784,0.7875,0.7919,0.794,0.7983,0.8031,0.8073,0.8113,0.8125,0.8158,0.8164,0.8219,0.819,0.8265,0.8232,0.8256,0.8271,0.8274,0.8279,0.8246,0.8296,0.8389,0.8398,0.8284,0.8283,0.8282,0,0.779,0.7872,0.7936,0.7958,0.8012,0.8042,0.8065,0.8104,0.8134,0.8176,0.8195,0.8243,0.8269,0.8305,0.8322,0.83,0.8395,0.8368,0.8404,0.8403,0.8423,0.8421,0.8519,0.8442,0.8442,0.8441,0.8441,0,0.7873,0.7927,0.7959,0.7998,0.8058,0.8076,0.8135,0.8158,0.8192,0.8234,0.8238,0.8278,0.8299,0.8341,0.8354,0.8412,0.8424,0.8434,0.8436,0.8433,0.8431,0.8448,0.8443,0.8444,0.8443,0.8443,0.8442,0,0.7938,0.7962,0.8031,0.8076,0.8088,0.8131,0.8169,0.8206,0.8225,0.8278,0.8292,0.8321,0.8371,0.8392,0.8452,0.8461,0.8527,0.8527,0.8513,0.8514,0.8547,0.8543,0.8658,0.8672,0.8587,0.8588,0.8589,0,0.7988,0.803,0.808,0.8108,0.8133,0.818,0.821,0.8228,0.8259,0.8308,0.8338,0.8388,0.8428,0.8506,0.8532,0.8578,0.8578,0.8615,0.8585,0.8578,0.8576,0.8572,0.8575,0.862,0.8621,0.8621,0.8622,0,0.8075,0.8084,0.8128,0.8176,0.8212,0.825,0.8288,0.8311,0.8335,0.8369,0.842,0.8451,0.8512,0.856,0.8607,0.863,0.8629,0.8631,0.8642,0.8637,0.8626,0.863,0.8526,0.8628,0.8628,0.8627,0.8627,0.8627,0.8133,0.8169,0.8209,0.8257,0.8287,0.8322,0.8358,0.8381,0.8424,0.8476,0.8484,0.8537,0.8574,0.8637,0.8661,0.8702,0.8692,0.8708,0.8711,0.8714,0.8715,0.8621,0.8711,0.8711,0.871,0.871,0.871,0,0.8217,0.8242,0.8287,0.8339,0.8376,0.8374,0.8414,0.8445,0.8492,0.8527,0.8567,0.8623,0.8669,0.8699,0.8745,0.8771,0.8772,0.8783,0.878,0.8784,0.8722,0.8708,0.8781,0.8781,0.8781,0.8781,0.8781,0.8781,0.8265,0.8326,0.8339,0.8414,0.8439,0.8492,0.8515,0.8545,0.8573,0.8637,0.8675,0.8694,0.8726,0.8774,0.8816,0.8823,0.8838,0.8849,0.8856,0.8797,0.8789,0.8782,0.8768,0.8853,0.8853,0.8914,0.8914,0.8915]}]]